Main page
METAR-TAF:

METAR-TAF

Airports :

Kinloss, Scotland

RAF Kinloss

latitude: 57-39N, longitude: 003-34W, elevation: 7 m

Current weather observation

The report was made 36 minutes ago, at 01:50 UTC
Wind 8 kt from the South
Temperature 4°C
Humidity 75%
Pressure 1015 hPa
Visibility 10 km or more

METAR: EGQK 170150Z AUTO 19008KT 9999 OVC060/// 04/M00 Q1015

Time: 02:26 (02:26 UTC)


TAF: missing

Weather observations and forecasts of more than 4000 airports (METAR and TAF reports).

The available stations are represented by yellow and red dots on the map.

Hover mouse over dot to see the name of the station.

Then click to see weather observations and forecasts.

To change the map : click on the green buttons with a black cross to zoom in, on the green button with a dash to zoom out, or on the green arrows for adjacent maps.


METAR-TAF: